Flag for Germany Weather past 2 weeks in Geldern, North Rhine-Westphalia, Germany

Now
61 °F

Fog.


Feels Like: 61 °F
Forecast: 49 / 61 °F
Wind: 2 mph from North

Location: Niederrhein

Current Time: Sep 21, 2014 at 6:57:37 AM

Latest Report: Sep 21, 2014 at 6:20 AM


Visibility: 2 mi

Pressure: 29.98 "Hg

Humidity: 100%

Dew point: 61 °F

Location of GeldernLocation

Historic Weather in Geldern — Graph

°F

Geldern temperature yesterday

Maximum temperature yesterday: 75 °F (at 2:50 PM)
Minimum temperature yesterday: 55 °F (at 6:20 AM)
Average temperature yesterday: 64 °F

Past Weeks' High & Low Weather Summary

 TemperatureHumidityPressure
High79 °F (Sep 17, 3:50 PM)100% (Sep 6, 5:20 AM)30.27 "Hg (Sep 6, 5:20 AM)
Low50 °F (Sep 9, 5:20 AM)43% (Sep 8, 5:20 PM)29.83 "Hg (Sep 18, 4:50 AM)
Average64 °F81%30.03 "Hg
* Reported Sep 6 5:20 AM — Sep 21 5:20 AM, Geldern, Weather by CustomWeather, © 2014

Note: Actual official high and low records may vary slightly from our data, if they occured in-between our weather recording intervals... More about our weather records

Advertising

Geldern weather history for previous 24 hours

 ConditionsComfort  
Time TempWeatherWind HumidityBarometerVisibility
5:20 AM
Sep 21
61 °FFog.2 mph100%29.98 "Hg2 mi
4:50 AM61 °FFog.2 mph100%29.98 "Hg2 mi
11:50 PM
Sep 20
63 °FPassing clouds.No wind100%29.98 "Hg4 mi
11:20 PM63 °FPassing clouds.1 mph100%29.98 "Hg4 mi
10:20 PM64 °FPassing clouds.2 mph83%29.98 "HgN/A
9:50 PM63 °FClear.2 mph88%29.98 "Hg10 mi
9:20 PM63 °FClear.3 mph94%29.98 "Hg4 mi
8:50 PM63 °FSunny.2 mph100%29.95 "Hg10 mi
8:20 PM64 °FClear.No wind88%29.95 "Hg4 mi
7:50 PM66 °FClear.3 mph88%29.95 "Hg4 mi
3:20 PM75 °FFog.8 mph69%29.92 "Hg3 mi
2:50 PM75 °FFog.6 mph69%29.95 "Hg3 mi
2:20 PM73 °FFog.1 mph74%29.95 "Hg2 mi
1:50 PM72 °FFog.5 mph78%29.95 "Hg3 mi
1:20 PM72 °FFog.5 mph78%29.95 "Hg3 mi
12:20 PM72 °FPartly sunny.5 mph78%29.95 "Hg4 mi
11:50 AM70 °FPartly sunny.5 mph83%29.95 "Hg4 mi
11:20 AM68 °FClear.3 mph83%29.95 "Hg4 mi
10:50 AM68 °FFog.3 mph88%29.95 "Hg3 mi
9:50 AM61 °FFog.1 mph100%29.95 "Hg1 mi
8:50 AM61 °FLight rain. Fog.2 mph100%29.92 "Hg3 mi
8:20 AM59 °FDrizzle. Fog.2 mph100%29.92 "Hg3 mi
7:50 AM59 °FThundershowers. Passing clouds.No wind100%29.92 "Hg4 mi
7:20 AM61 °FThundershowers. Passing clouds.3 mph100%29.92 "Hg4 mi
6:50 AM57 °FRain. Fog.3 mph100%29.92 "Hg1 mi
6:20 AM55 °FFog.No wind100%29.92 "Hg0 mi
Weather by CustomWeather, © 2014

See weather overviewHow to use our weather pages